Location: Unspecified
(33.6682°S, 0.0000°E)
Time: 18:13:21
(UTC+00:00)

S-56A Canister/Altair - Pass Details

Date: 30 June 2019
Orbit: 632 x 2500 km, 38.9° (Epoch: 14 July)

Event Time Altitude Azimuth Distance (km) Brightness Sun altitude
Exits shadow 04:39:21 53° 227° (SW) 1,836 9.0 -29.6°
Maximum altitude 04:41:47 68° 170° (S) 1,757 9.1 -29.1°
Drops below altitude 10° 04:54:22 10° 87° (E) 4,725 12.5 -26.5°
Sets 04:58:38 0° 84° (E) 5,923 13.4 -25.6°
